www.pogodaiklimat.ru

Погода и климат >> Архив погоды >> Гана >> Ва


ПОГОДА в Ва

  • Прогноз погоды в Ва
  • Монитор погоды в Ва

АРХИВ ПОГОДЫ в Ва

Время (UTC), дата Ветер
(напр.,м/с)
 
Видим.   Явления Облачность Т
(С)
Тd
(С)
f
(%)
Тe
(С)
Тes
(С)
Комфортность P
(гПа)
Po
(гПа)
Тmin
(С)
Tmax
(С)
R
(мм)
R24
(мм)
S
(см)
00 18.03 ЮВ 2 8000 м мгла ясно +31.0 +19.6 51 +37 +37 очень
душно
1010.4 974.4
03 18.03 ЮЗ 1 8000 м мгла ясно +29.5 +19.4 55 +35 +35 очень
душно
1008.7 972.6
06 18.03 ЮЗ 1 8000 м мгла ясно +28.0 +20.0 62 +34 +34 очень
душно
1009.0 972.7 +27.5
09 18.03 ЮЗ 2 8000 м мгла ясно +30.9 +21.5 57 +39 +49 очень
душно
1010.2 974.2
12 18.03 СВ 1 8000 м мгла 1/1 480 м
[Cu hum]
+37.4 +21.0 39 +44 +67 опасность
перегрева
1009.6 974.3
15 18.03 8000 м мгла н/о +39.6 +18.4 29 +43 +49 опасность
перегрева
1005.6 970.7
18 18.03 ЮВ 3 8000 м мгла 8/0
[Ac trans]
+38.5 +18.0 30 +42 +42 опасность
перегрева
1005.0 970.0 +39.6
21 18.03 ЮВ 2 8000 м мгла 1/0
[Ac trans]
+34.5 +19.6 42 +40 +40 очень
душно
1007.7 972.2
00 19.03 штиль 0 8000 м в посл. час дождь 9/6 400 м
[Cb cap Ac trans]
+33.5 +20.1 45 +40 +40 очень
душно
1009.0 973.3 0.0
03 19.03 ЮЗ 2 8000 м мгла 9/4 400 м
[Sc Ac trans]
1007.9 971.0
09 19.03 ЮЗ 2 8000 м мгла 5/0
[Ac trans Ci sp]
+31.5 +20.2 51 +38 +45 очень
душно
1011.3 975.3
12 19.03 ЮЗ 3 8000 м мгла 4/4 480 м
[Cu med, cong]
+33.5 +20.0 45 +40 +50 очень
душно
1009.3 973.6
15 19.03 ЮЗ 3 8000 м мгла 8/8 480 м
[Cu med, cong]
+38.5 +21.3 37 +45 +47 опасность
перегрева
1004.9 969.9
18 19.03 ЮЗ 2 8000 м в посл. час дождь 9/8 400 м
[Cb cap Ac trans]
+32.5 +18.8 44 +37 +37 очень
душно
1005.5 969.8 +38.5 0.0
21 19.03 ЮЗ 2 8000 м мгла 9/4 360 м
[Sc Ac trans]
+32.0 +20.8 52 +39 +39 очень
душно
1008.8 973.0
00 20.03 ЮЗ 1 8000 м мгла 9/3 360 м
[Sc Ac trans]
+30.8 +21.3 57 +39 +39 очень
душно
1008.9 972.9
03 20.03 ЮВ 5 8000 м зарница 9/5 360 м
[Cb cap Ac trans]
+29.5 +21.0 60 +37 +37 очень
душно
1008.0 971.9
06 20.03 ЮЗ 2 8000 м мгла 9/4 360 м
[Sc Ac trans]
+25.5 +22.0 81 +33 +33 очень
душно
1009.4 972.8 +25.0 0.0
09 20.03 ЮЗ 2 8000 м мгла 9/5 360 м
[Sc Ac trans]
+28.0 +20.9 65 +35 +38 очень
душно
1010.9 974.5
12 20.03 ЮЗ 2 12 км 4/1 450 м
[Cu hum Ac trans Ci sp]
+34.3 +19.7 42 +40 +57 опасность
солнечного
удара
1009.3 973.7
15 20.03 СЗ 2 13 км 4/0
[Ci sp]
+38.0 +18.8 33 +42 +54 опасность
перегрева
1006.5 971.4
18 20.03 ЮЗ 1 12 км 6/0
[Cs]
+36.5 +18.3 34 +40 +40 очень
душно
1004.7 969.5 +38.0
21 20.03 ЮЗ 2 12 км 4/0
[Ci sp]
+34.0 +19.0 41 +39 +39 очень
душно
1007.4 971.8
06 21.03 ЮЗ 4 12 км в посл. час гроза {дождь} 9/5 400 м
[Sc Ac trans Cs]
+27.5 +21.9 72 +36 +36 очень
душно
1008.7 972.3 +26.5 1
09 21.03 ЮЗ 3 12 км 4/0
[Ac trans Ci sp]
+29.0 +22.0 66 +37 +45 очень
душно
1011.4 975.1
12 21.03 СВ 2 12 км 1/1 450 м
[Cu hum]
+37.0 +20.7 39 +44 +65 опасность
перегрева
1009.2 973.9
15 21.03 СВ 1 12 км 5/5 480 м
[Cu med, cong]
+39.0 +19.3 32 +44 +51 опасность
перегрева
1006.5 971.5
18 21.03 СВ 1 12 км 4/0
[Ac trans Ci sp]
+38.0 +17.9 31 +41 +41 опасность
перегрева
1003.6 968.6 +39.5
21 21.03 ЮЗ 2 12 км 9/0
[Ac trans Cs]
+32.6 +21.3 51 +40 +40 очень
душно
1007.1 971.4
06 22.03 ЮЗ 2 12 км 5/3 360 м
[Sc Ci sp]
+27.0 +21.4 71 +34 +34 очень
душно
1009.8 973.3 +27.0
09 22.03 СЗ 4 12 км 8/0
[Ac trans Cs]
+31.2 +21.2 55 +39 +43 очень
душно
1011.0 975.0
12 22.03 СВ 1 12 км 5/0
[Ci sp]
+37.2 +14.3 26 +38 +61 опасность
солнечного
удара
1009.7 974.4
15 22.03 СВ 2 12 км 5/0
[Ac trans Ci sp]
+39.7 +8.2 15 +38 +46 очень
жарко
1005.9 971.0
18 22.03 СВ 1 12 км 8/0
[Cs]
+37.6 +9.7 19 +36 +36 очень
жарко
1005.1 970.0 +39.7
21 22.03 штиль 0 12 км 5/0
[Ac trans Ci sp]
+32.0 +12.3 30 +32 +32 жарко 1009.2 973.3
00 23.03 ЮЗ 2 12 км 9/0
[Ac trans]
+31.5 +17.6 43 +35 +35 очень
душно
1010.2 974.3
03 23.03 ЮЗ 2 12 км 9/0
[Ac trans]
+29.0 +18.8 54 +34 +34 очень
душно
1009.4 973.2
06 23.03 ЮЗ 2 12 км 9/0
[Ac trans]
+27.0 +19.8 65 +33 +33 очень
душно
1010.3 973.8 +26.5
12 23.03 СВ 5 8000 м мгла 9/0
[Ac trans Ci sp]
+38.5 +4.2 12 +35 +42 очень
жарко
1009.2 974.1
15 23.03 ЮВ 3 8000 м мгла 9/0
[Ac trans]
+39.0 +4.8 12 +36 +40 очень
жарко
1006.4 971.4
18 23.03 СВ 2 6000 м мгла 9/1 300 м
[Cu Sc]
+37.0 +6.9 16 +35 +35 очень
жарко
1007.1 971.9 +39.5

 

Местоположение метеостанции Ва (Гана): широта 10.05 долгота -2.50 высота над уровнем моря 323 м.

В архиве по умолчанию представлена погода в Ва за последнюю неделю. Архивные данные за месяц целиком и за предыдущие месяцы, начиная с января 2011 года, Вы можете получить, выбрав интересующий диапазон дат из раскрывающегося списка и нажав кнопку "Ввод!".


*Определитесь, кто Вы:
робот инопланетянин человек

Внимание! Время в таблицах - всемирное. Для получения местного времени необходимо прибавить поправку, которая равна 1 ч.

Смотрите также архив погоды в соседних городах и на ближайших метеорологических станциях:

Погода в Гауа (Буркина-Фасо) (81 км)
Погода в Боле (Гана) (113 км)
Погода в Навронго (Гана) (180 км)
Погода в Тамале (Гана) (191 км)
Погода в По (Буркина-Фасо) (192 км)
Погода в Боромо (Буркина-Фасо) (195 км)
Погода в Бондуку (Кот-д'Ивуар) (225 км)
Погода в Бобо-Диуласо (Буркина-Фасо) (235 км)
Погода в Уэнчи (Гана) (260 км)
Погода в Уагадугу (Буркина-Фасо) (277 км)

Пояснения к столбцам:

Ветер - указаны скорость ветра в м/с - средняя за 10 мин, порывы в срок и между сроками (в фигурных скобках) и направление, откуда дует ветер: С - северный, СВ - северо-восточный, В - восточный, ЮВ - юго-восточный, Ю - южный, ЮЗ - юго-западный, З - западный, СЗ - северо-западный.
Видимость - горизонтальная дальность видимости в метрах или километрах. При видимости от 1 до 10 км при отсутствии осадков обычно наблюдается дымка, при ухудшении видимости до 1 км и менее - туман. В сухую погоду видимость может ухудшаться дымом, пылью или мглою.
Явления - указаны атмосферные явления, наблюдавшиеся в срок или в последний час перед сроком; фигурными скобками обозначены явления, наблюдавшиеся между сроками (за 1-3 часа до срока); квадратными скобками обозначены град или гололедные отложения с указанием их диаметра в мм.
Облачность - указаны через наклонную черту общая и нижняя облачность в баллах и высота нижней границы облаков в метрах; квадратными скобками обозначены формы облаков: Ci - перистые, Cs - перисто-слоистые, Cc - перисто-кучевые, Ac - высококучевые, As - высокослоистые, Sc - слоисто-кучевые, Ns - слоисто-дождевые, Cu - кучевые, Cb - кучево-дождевые. Подробнее классификацию облаков см. в Атласе облаков (PDF).
T - Температура воздуха - температура, измеренная на высоте 2 м над землей.
Td - Температура точки росы - температура, при понижении до которой содержащийся в воздухе водяной пар достигнет насыщения.
f - Относительная влажность воздуха - влажноcть воздуха, измеренная на высоте 2 м над землей.
Te - Эффективная температура - температура, которую ощущает одетый по сезону человек в тени. Характеристика душности погоды. При расчете учитывается влияние влажности воздуха и скорости ветра на теплоощущения человека.
Tes - Эффективная температура на солнце - температура, которую ощущает человек, с поправкой на солнечный нагрев. Характеристика знойности погоды. Зависит от высоты солнца над горизонтом, облачности и скорости ветра. Ночью, в пасмурную погоду, а также при ветре 12 м/с и более поправка равна нулю.
P - Атмосферное давление - приведенное к уровню моря атмосферное давление.
Po - Атмосферное давление - измеренное на уровне метеостанции атмосферное давление.
Tmin - Минимальная температура - минимум температуры воздуха на высоте 2 м над землей.
Tmax - Максимальная температура - максимум температуры воздуха на высоте 2 м над землей.
R - Количество осадков - Количество выпавших осадков за период времени, мм. При наведении курсора мыши на число - период времени, за который выпало указанное количество осадков.
R24 - Количество осадков - Количество выпавших осадков за 24 часа, мм.
S - Снежный покров - Высота снежного покрова, см. При наведении курсора мыши на число - состояние снежного покрова и степень покрытия местности в баллах.